Jamestown, NY
on Tuesday, June 19, 2018

Tuesday
       
Previous Day Next Day
Daily Summary
 ActualAverageRecord
Temperature
Mean Temperature °F °C °F °C  
Max Temperature 73°F 23°C 77°F 25°C 85°F 29°C (1975)
Min Temperature 62°F 17°C 51°F 10°C 38°F 3°C (1986)
Cooling Degree Days 2    
Growing Degree Days18 (Base °F °C )  
Moisture
Dew Point 61°F 16°C   
Average Humidity 82    
Maximum Humidity 100    
Minimum Humidity 55    
Precipitation
Precipitation 0.07 in / 1.78 cm in / cm in / cm ()
Wind
Wind Speed 9 mph / 14 km/h   
Max Wind Speed 15 mph / 24 km/h   
Max Gust Speed 21 mph / 34 km/h   
Visibility 8 miles / 13 kilometers   
Events Fog , Rain   
Averages and records for this station are not official NWS values.
Key: T is trace of precipitation, MM is missing value
Source: NWS Daily Summary
Seasonal Weather Averages
Time(EDT)TemperatureDew PointHumidity Pressure Visibility Wind DirectionWind SpeedGust SpeedPrecipitationEvents Conditions
12:56 AM 71.1°F 21.7°C 70.0°F 21.1°C 96% 29.91 in / 1012.7 hPa 10.0 miles / 16.1 kilometers West 5.8 mph / 9.3 km/h - 0.01 in / 0.3 cm Rain Light Rain
1:35 AM 71.6°F 22.0°C 69.8°F 21.0°C 94% 29.93 in / 1013.4 hPa 10.0 miles / 16.1 kilometers WNW 8.1 mph / 13.0 km/h - 0.04 in / 1.0 cm   Overcast
1:41 AM 71.6°F 22.0°C 69.8°F 21.0°C 94% 29.92 in / 1013.1 hPa 10.0 miles / 16.1 kilometers WNW 8.1 mph / 13.0 km/h - 0.04 in / 1.0 cm   Overcast
1:52 AM 71.6°F 22.0°C 69.8°F 21.0°C 94% 29.92 in / 1013.1 hPa 9.0 miles / 14.5 kilometers NW 8.1 mph / 13.0 km/h - 0.04 in / 1.0 cm   Overcast
1:56 AM 71.1°F 21.7°C 69.1°F 20.6°C 93% 29.89 in / 1012.2 hPa 9.0 miles / 14.5 kilometers NW 8.1 mph / 13.0 km/h - 0.04 in / 1.0 cm   Overcast
2:03 AM 71.6°F 22.0°C 69.8°F 21.0°C 94% 29.93 in / 1013.4 hPa 10.0 miles / 16.1 kilometers NW 8.1 mph / 13.0 km/h - N/A   Overcast
2:33 AM 69.8°F 21.0°C 68.0°F 20.0°C 94% 29.93 in / 1013.4 hPa 8.0 miles / 12.9 kilometers NNW 11.5 mph / 18.5 km/h - 0.00 in / 0.0 cm Rain Light Rain
2:40 AM 69.8°F 21.0°C 68.0°F 20.0°C 94% 29.93 in / 1013.4 hPa 9.0 miles / 14.5 kilometers NNW 9.2 mph / 14.8 km/h - 0.00 in / 0.0 cm   Overcast
2:56 AM 69.1°F 20.6°C 68.0°F 20.0°C 96% 29.90 in / 1012.5 hPa 6.0 miles / 9.7 kilometers North 8.1 mph / 13.0 km/h - 0.00 in / 0.0 cm Rain Light Rain
3:56 AM 66.9°F 19.4°C 66.0°F 18.9°C 97% 29.91 in / 1012.8 hPa 5.0 miles / 8.0 kilometers NNW 10.4 mph / 16.7 km/h - 0.01 in / 0.3 cm   Overcast
4:56 AM 64.9°F 18.3°C 64.0°F 17.8°C 97% 29.93 in / 1013.5 hPa 6.0 miles / 9.7 kilometers North 10.4 mph / 16.7 km/h - N/A   Overcast
5:23 AM 64.4°F 18.0°C 62.6°F 17.0°C 94% 29.96 in / 1014.4 hPa 1.8 miles / 2.8 kilometers North 8.1 mph / 13.0 km/h - 0.00 in / 0.0 cm Rain Light Rain
5:31 AM 64.4°F 18.0°C 62.6°F 17.0°C 94% 29.96 in / 1014.4 hPa 0.8 miles / 1.2 kilometers North 8.1 mph / 13.0 km/h - 0.00 in / 0.0 cm Rain Light Rain
5:41 AM 64.4°F 18.0°C 62.6°F 17.0°C 94% 29.97 in / 1014.8 hPa 1.2 miles / 2.0 kilometers North 8.1 mph / 13.0 km/h - 0.01 in / 0.3 cm Rain Light Rain
5:49 AM 62.6°F 17.0°C 62.6°F 17.0°C 100% 29.97 in / 1014.8 hPa 0.8 miles / 1.2 kilometers North 9.2 mph / 14.8 km/h - 0.01 in / 0.3 cm Rain Light Rain
5:56 AM 63.0°F 17.2°C 63.0°F 17.2°C 100% 29.95 in / 1014.0 hPa 0.2 miles / 0.4 kilometers NNE 8.1 mph / 13.0 km/h - 0.01 in / 0.3 cm Fog Fog
6:05 AM 62.6°F 17.0°C 62.6°F 17.0°C 100% 29.97 in / 1014.8 hPa 0.5 miles / 0.8 kilometers NNE 8.1 mph / 13.0 km/h - N/A Fog Fog
6:21 AM 62.6°F 17.0°C 62.6°F 17.0°C 100% 29.98 in / 1015.1 hPa 0.8 miles / 1.2 kilometers North 8.1 mph / 13.0 km/h - N/A   Overcast
6:23 AM 62.6°F 17.0°C 62.6°F 17.0°C 100% 29.98 in / 1015.1 hPa 3.0 miles / 4.8 kilometers North 8.1 mph / 13.0 km/h - N/A   Overcast
6:54 AM 62.6°F 17.0°C 62.6°F 17.0°C 100% 29.99 in / 1015.5 hPa 10.0 miles / 16.1 kilometers NNE 8.1 mph / 13.0 km/h - N/A   Overcast
6:56 AM 63.0°F 17.2°C 62.1°F 16.7°C 97% 29.97 in / 1014.9 hPa 10.0 miles / 16.1 kilometers North 8.1 mph / 13.0 km/h - N/A   Overcast
7:56 AM 63.0°F 17.2°C 60.1°F 15.6°C 90% 30.00 in / 1015.9 hPa 10.0 miles / 16.1 kilometers NE 11.5 mph / 18.5 km/h 20.7 mph / 33.3 km/h N/A   Overcast
8:19 AM 64.4°F 18.0°C 59.0°F 15.0°C 83% 30.01 in / 1016.1 hPa 10.0 miles / 16.1 kilometers NE 12.7 mph / 20.4 km/h - N/A   Mostly Cloudy
8:28 AM 64.4°F 18.0°C 57.2°F 14.0°C 77% 30.01 in / 1016.1 hPa 10.0 miles / 16.1 kilometers NE 12.7 mph / 20.4 km/h - N/A   Scattered Clouds
8:56 AM 64.9°F 18.3°C 57.9°F 14.4°C 78% 30.01 in / 1016.3 hPa 10.0 miles / 16.1 kilometers ENE 8.1 mph / 13.0 km/h - N/A   Clear
9:56 AM 66.0°F 18.9°C 57.0°F 13.9°C 73% 30.02 in / 1016.5 hPa 10.0 miles / 16.1 kilometers NE 10.4 mph / 16.7 km/h - N/A   Clear
10:56 AM 68.0°F 20.0°C 55.9°F 13.3°C 65% 30.00 in / 1015.9 hPa 10.0 miles / 16.1 kilometers NE 15.0 mph / 24.1 km/h 19.6 mph / 31.5 km/h N/A   Partly Cloudy
11:56 AM 70.0°F 21.1°C 57.0°F 13.9°C 63% 30.01 in / 1016.1 hPa 10.0 miles / 16.1 kilometers ENE 10.4 mph / 16.7 km/h - N/A   Scattered Clouds
12:56 PM 71.1°F 21.7°C 55.9°F 13.3°C 59% 30.01 in / 1016.1 hPa 10.0 miles / 16.1 kilometers North 10.4 mph / 16.7 km/h - N/A   Mostly Cloudy
1:56 PM 72.0°F 22.2°C 55.0°F 12.8°C 55% 30.00 in / 1015.7 hPa 10.0 miles / 16.1 kilometers North 11.5 mph / 18.5 km/h - N/A   Partly Cloudy
2:56 PM 73.0°F 22.8°C 57.0°F 13.9°C 57% 29.99 in / 1015.6 hPa 10.0 miles / 16.1 kilometers NNE 8.1 mph / 13.0 km/h - N/A   Scattered Clouds
3:56 PM 73.0°F 22.8°C 55.9°F 13.3°C 55% 29.98 in / 1015.0 hPa 10.0 miles / 16.1 kilometers NNW 12.7 mph / 20.4 km/h - N/A   Clear
4:56 PM 72.0°F 22.2°C 57.9°F 14.4°C 61% 29.98 in / 1015.1 hPa 10.0 miles / 16.1 kilometers NNW 10.4 mph / 16.7 km/h - N/A   Clear
5:56 PM 71.1°F 21.7°C 57.9°F 14.4°C 63% 29.98 in / 1015.2 hPa 10.0 miles / 16.1 kilometers NNW 11.5 mph / 18.5 km/h - N/A   Clear
6:56 PM 68.0°F 20.0°C 55.9°F 13.3°C 65% 29.98 in / 1015.1 hPa 10.0 miles / 16.1 kilometers NNW 9.2 mph / 14.8 km/h - N/A   Clear
7:56 PM 66.9°F 19.4°C 55.9°F 13.3°C 68% 29.97 in / 1014.7 hPa 10.0 miles / 16.1 kilometers North 5.8 mph / 9.3 km/h - N/A   Clear
8:56 PM 64.9°F 18.3°C 53.1°F 11.7°C 65% 29.98 in / 1015.2 hPa 10.0 miles / 16.1 kilometers North 6.9 mph / 11.1 km/h - N/A   Clear
9:56 PM 63.0°F 17.2°C 51.1°F 10.6°C 65% 29.99 in / 1015.4 hPa 10.0 miles / 16.1 kilometers North 6.9 mph / 11.1 km/h - N/A   Partly Cloudy
10:56 PM 63.0°F 17.2°C 51.1°F 10.6°C 65% 29.99 in / 1015.4 hPa 10.0 miles / 16.1 kilometers North 6.9 mph / 11.1 km/h - N/A   Clear
11:56 PM 62.1°F 16.7°C 50.0°F 10.0°C 65% 29.98 in / 1015.1 hPa 10.0 miles / 16.1 kilometers North 4.6 mph / 7.4 km/h - N/A   Overcast